Year,Month,Day,Hour,Minute,Value (Times are PST for temperature in C)
2017,06,17,00,00,12.40
2017,06,17,00,01,12.40
2017,06,17,00,02,12.40
2017,06,17,00,03,12.40
2017,06,17,00,04,12.40
2017,06,17,00,05,12.40
2017,06,17,00,06,12.40
2017,06,17,00,07,12.40
2017,06,17,00,08,12.30
2017,06,17,00,09,12.30
2017,06,17,00,10,12.30
2017,06,17,00,11,12.30
2017,06,17,00,12,12.30
2017,06,17,00,13,12.30
2017,06,17,00,14,12.30
2017,06,17,00,15,12.30
2017,06,17,00,16,12.30
2017,06,17,00,17,12.30
2017,06,17,00,18,12.30
2017,06,17,00,19,12.30
2017,06,17,00,20,12.30
2017,06,17,00,21,12.20
2017,06,17,00,22,12.20
2017,06,17,00,23,12.20
2017,06,17,00,24,12.20
2017,06,17,00,25,12.20
2017,06,17,00,26,12.20
2017,06,17,00,27,12.10
2017,06,17,00,28,12.10
2017,06,17,00,29,12.10
2017,06,17,00,30,12.10
2017,06,17,00,31,12.10
2017,06,17,00,32,12.10
2017,06,17,00,33,12.10
2017,06,17,00,34,12.10
2017,06,17,00,35,12.10
2017,06,17,00,36,12.10
2017,06,17,00,37,12.10
2017,06,17,00,38,12.10
2017,06,17,00,39,12.10
2017,06,17,00,40,12.10
2017,06,17,00,41,12.10
2017,06,17,00,42,12.00
2017,06,17,00,43,12.00
2017,06,17,00,44,12.00
2017,06,17,00,45,12.00
2017,06,17,00,46,11.90
2017,06,17,00,47,11.90
2017,06,17,00,48,11.90
2017,06,17,00,49,11.90
2017,06,17,00,50,11.90
2017,06,17,00,51,11.80
2017,06,17,00,52,11.80
2017,06,17,00,53,11.80
2017,06,17,00,54,11.80
2017,06,17,00,55,11.80
2017,06,17,00,56,11.80
2017,06,17,00,57,11.80
2017,06,17,00,58,11.80
2017,06,17,00,59,11.90
2017,06,17,01,00,11.90
2017,06,17,01,01,11.90
2017,06,17,01,02,11.90
2017,06,17,01,03,11.90
2017,06,17,01,04,11.90
2017,06,17,01,05,11.90
2017,06,17,01,06,11.80
2017,06,17,01,07,11.80
2017,06,17,01,08,11.80
2017,06,17,01,09,11.80
2017,06,17,01,10,11.80
2017,06,17,01,11,11.80
2017,06,17,01,12,11.80
2017,06,17,01,13,11.80
2017,06,17,01,14,11.80
2017,06,17,01,15,11.70
2017,06,17,01,16,11.70
2017,06,17,01,17,11.70
2017,06,17,01,18,11.70
2017,06,17,01,19,11.60
2017,06,17,01,20,11.60
2017,06,17,01,21,11.60
2017,06,17,01,22,11.50
2017,06,17,01,23,11.50
2017,06,17,01,24,11.40
2017,06,17,01,25,11.40
2017,06,17,01,26,11.30
2017,06,17,01,27,11.30
2017,06,17,01,28,11.30
2017,06,17,01,29,11.30
2017,06,17,01,30,11.30
2017,06,17,01,31,11.30
2017,06,17,01,32,11.30
2017,06,17,01,33,11.30
2017,06,17,01,34,11.30
2017,06,17,01,35,11.30
2017,06,17,01,36,11.30
2017,06,17,01,37,11.30
2017,06,17,01,38,11.20
2017,06,17,01,39,11.20
2017,06,17,01,40,11.20
2017,06,17,01,41,11.20
2017,06,17,01,42,11.20
2017,06,17,01,43,11.10
2017,06,17,01,44,11.10
2017,06,17,01,45,11.10
2017,06,17,01,46,11.10
2017,06,17,01,47,11.10
2017,06,17,01,48,11.10
2017,06,17,01,49,11.00
2017,06,17,01,50,11.00
2017,06,17,01,51,11.00
2017,06,17,01,52,10.90
2017,06,17,01,53,10.90
2017,06,17,01,54,10.90
2017,06,17,01,55,10.80
2017,06,17,01,56,10.80
2017,06,17,01,57,10.80
2017,06,17,01,58,10.80
2017,06,17,01,59,10.80
2017,06,17,02,00,10.80
2017,06,17,02,01,10.80
2017,06,17,02,02,10.80
2017,06,17,02,03,10.80
2017,06,17,02,04,10.80
2017,06,17,02,05,10.80
2017,06,17,02,06,10.80
2017,06,17,02,07,10.80
2017,06,17,02,08,10.70
2017,06,17,02,09,10.70
2017,06,17,02,10,10.70
2017,06,17,02,11,10.70
2017,06,17,02,12,10.70
2017,06,17,02,13,10.70
2017,06,17,02,14,10.60
2017,06,17,02,15,10.60
2017,06,17,02,16,10.60
2017,06,17,02,17,10.50
2017,06,17,02,18,10.50
2017,06,17,02,19,10.50
2017,06,17,02,20,10.50
2017,06,17,02,21,10.50
2017,06,17,02,22,10.50
2017,06,17,02,23,10.50
2017,06,17,02,24,10.40
2017,06,17,02,25,10.40
2017,06,17,02,26,10.40
2017,06,17,02,27,10.40
2017,06,17,02,28,10.40
2017,06,17,02,29,10.40
2017,06,17,02,30,10.40
2017,06,17,02,31,10.40
2017,06,17,02,32,10.40
2017,06,17,02,33,10.40
2017,06,17,02,34,10.40
2017,06,17,02,35,10.30
2017,06,17,02,36,10.40
2017,06,17,02,37,10.40
2017,06,17,02,38,10.40
2017,06,17,02,39,10.30
2017,06,17,02,40,10.30
2017,06,17,02,41,10.30
2017,06,17,02,42,10.30
2017,06,17,02,43,10.30
2017,06,17,02,44,10.30
2017,06,17,02,45,10.30
2017,06,17,02,46,10.20
2017,06,17,02,47,10.20
2017,06,17,02,48,10.20
2017,06,17,02,49,10.20
2017,06,17,02,50,10.20
2017,06,17,02,51,10.20
2017,06,17,02,52,10.10
2017,06,17,02,53,10.10
2017,06,17,02,54,10.10
2017,06,17,02,55,10.10
2017,06,17,02,56,10.10
2017,06,17,02,57,10.10
2017,06,17,02,58,10.10
2017,06,17,02,59,10.00
2017,06,17,03,00,10.00
2017,06,17,03,01,10.00
2017,06,17,03,02,10.00
2017,06,17,03,03,10.00
2017,06,17,03,04,10.00
2017,06,17,03,05,10.00
2017,06,17,03,06,10.00
2017,06,17,03,07,10.00
2017,06,17,03,08,10.00
2017,06,17,03,09,10.00
2017,06,17,03,10,10.00
2017,06,17,03,11,10.00
2017,06,17,03,12,10.00
2017,06,17,03,13,10.00
2017,06,17,03,14,10.00
2017,06,17,03,15,10.00
2017,06,17,03,16,9.90
2017,06,17,03,17,10.00
2017,06,17,03,18,10.00
2017,06,17,03,19,9.90
2017,06,17,03,20,10.00
2017,06,17,03,21,10.00
2017,06,17,03,22,10.00
2017,06,17,03,23,10.00
2017,06,17,03,24,10.00
2017,06,17,03,25,10.00
2017,06,17,03,26,10.00
2017,06,17,03,27,10.00
2017,06,17,03,28,10.00
2017,06,17,03,29,10.00
2017,06,17,03,30,10.00
2017,06,17,03,31,10.00
2017,06,17,03,32,9.90
2017,06,17,03,33,9.90
2017,06,17,03,34,9.90
2017,06,17,03,35,9.90
2017,06,17,03,36,9.90
2017,06,17,03,37,9.90
2017,06,17,03,38,9.90
2017,06,17,03,39,9.90
2017,06,17,03,40,9.90
2017,06,17,03,41,9.80
2017,06,17,03,42,9.80
2017,06,17,03,43,9.80
2017,06,17,03,44,9.80
2017,06,17,03,45,9.80
2017,06,17,03,46,9.80
2017,06,17,03,47,9.80
2017,06,17,03,48,9.80
2017,06,17,03,49,9.80
2017,06,17,03,50,9.80
2017,06,17,03,51,9.80
2017,06,17,03,52,9.80
2017,06,17,03,53,9.80
2017,06,17,03,54,9.80
2017,06,17,03,55,9.80
2017,06,17,03,56,9.80
2017,06,17,03,57,9.90
2017,06,17,03,58,9.80
2017,06,17,03,59,9.80
2017,06,17,04,00,9.80
2017,06,17,04,01,9.80
2017,06,17,04,02,9.80
2017,06,17,04,03,9.80
2017,06,17,04,04,9.80
2017,06,17,04,05,9.80
2017,06,17,04,06,9.80
2017,06,17,04,07,9.80
2017,06,17,04,08,9.80
2017,06,17,04,09,9.80
2017,06,17,04,10,9.80
2017,06,17,04,11,9.80
2017,06,17,04,12,9.80
2017,06,17,04,13,9.80
2017,06,17,04,14,9.80
2017,06,17,04,15,9.80
2017,06,17,04,16,9.80
2017,06,17,04,17,9.80
2017,06,17,04,18,9.80
2017,06,17,04,19,9.80
2017,06,17,04,20,9.80
2017,06,17,04,21,9.80
2017,06,17,04,22,9.80
2017,06,17,04,23,9.80
2017,06,17,04,24,9.80
2017,06,17,04,25,9.80
2017,06,17,04,26,9.80
2017,06,17,04,27,9.80
2017,06,17,04,28,9.80
2017,06,17,04,29,9.80
2017,06,17,04,30,9.80
2017,06,17,04,31,9.80
2017,06,17,04,32,9.80
2017,06,17,04,33,9.80
2017,06,17,04,34,9.80
2017,06,17,04,35,9.80
2017,06,17,04,36,9.80
2017,06,17,04,37,9.80
2017,06,17,04,38,9.80
2017,06,17,04,39,9.80
2017,06,17,04,40,9.80
2017,06,17,04,41,9.80
2017,06,17,04,42,9.80
2017,06,17,04,43,9.80
2017,06,17,04,44,9.80
2017,06,17,04,45,9.80
2017,06,17,04,46,9.80
2017,06,17,04,47,9.80
2017,06,17,04,48,9.80
2017,06,17,04,49,9.80
2017,06,17,04,50,9.70
2017,06,17,04,51,9.70
2017,06,17,04,52,9.70
2017,06,17,04,53,9.70
2017,06,17,04,54,9.70
2017,06,17,04,55,9.60
2017,06,17,04,56,9.60
2017,06,17,04,57,9.60
2017,06,17,04,58,9.60
2017,06,17,04,59,9.60
2017,06,17,05,00,9.60
2017,06,17,05,01,9.60
2017,06,17,05,02,9.50
2017,06,17,05,03,9.50
2017,06,17,05,04,9.50
2017,06,17,05,05,9.50
2017,06,17,05,06,9.50
2017,06,17,05,07,9.50
2017,06,17,05,08,9.40
2017,06,17,05,09,9.40
2017,06,17,05,10,9.40
2017,06,17,05,11,9.40
2017,06,17,05,12,9.40
2017,06,17,05,13,9.40
2017,06,17,05,14,9.40
2017,06,17,05,15,9.40
2017,06,17,05,16,9.40
2017,06,17,05,17,9.30
2017,06,17,05,18,9.30
2017,06,17,05,19,9.30
2017,06,17,05,20,9.30
2017,06,17,05,21,9.30
2017,06,17,05,22,9.30
2017,06,17,05,23,9.30
2017,06,17,05,24,9.30
2017,06,17,05,25,9.30
2017,06,17,05,26,9.20
2017,06,17,05,27,9.20
2017,06,17,05,28,9.20
2017,06,17,05,29,9.20
2017,06,17,05,30,9.20
2017,06,17,05,31,9.10
2017,06,17,05,32,9.10
2017,06,17,05,33,9.10
2017,06,17,05,34,9.10
2017,06,17,05,35,9.10
2017,06,17,05,36,9.10
2017,06,17,05,37,9.10
2017,06,17,05,38,9.10
2017,06,17,05,39,9.10
2017,06,17,05,40,9.10
2017,06,17,05,41,9.10
2017,06,17,05,42,9.10
2017,06,17,05,43,9.10
2017,06,17,05,44,9.10
2017,06,17,05,45,9.10
2017,06,17,05,46,9.10
2017,06,17,05,47,9.10
2017,06,17,05,48,9.20
2017,06,17,05,49,9.20
2017,06,17,05,50,9.20
2017,06,17,05,51,9.20
2017,06,17,05,52,9.20
2017,06,17,05,53,9.20
2017,06,17,05,54,9.20
2017,06,17,05,55,9.20
2017,06,17,05,56,9.20
2017,06,17,05,57,9.20
2017,06,17,05,58,9.20
2017,06,17,05,59,9.20
2017,06,17,06,00,9.20
2017,06,17,06,01,9.20
2017,06,17,06,02,9.20
2017,06,17,06,03,9.20
2017,06,17,06,04,9.20
2017,06,17,06,05,9.30
2017,06,17,06,06,9.30
2017,06,17,06,07,9.30
2017,06,17,06,08,9.30
2017,06,17,06,09,9.30
2017,06,17,06,10,9.30
2017,06,17,06,11,9.30
2017,06,17,06,12,9.30
2017,06,17,06,13,9.30
2017,06,17,06,14,9.30
2017,06,17,06,15,9.30
2017,06,17,06,16,9.40
2017,06,17,06,17,9.40
2017,06,17,06,18,9.40
2017,06,17,06,19,9.40
2017,06,17,06,20,9.40
2017,06,17,06,21,9.40
2017,06,17,06,22,9.40
2017,06,17,06,23,9.40
2017,06,17,06,24,9.50
2017,06,17,06,25,9.50
2017,06,17,06,26,9.50
2017,06,17,06,27,9.50
2017,06,17,06,28,9.60
2017,06,17,06,29,9.60
2017,06,17,06,30,9.60
2017,06,17,06,31,9.60
2017,06,17,06,32,9.60
2017,06,17,06,33,9.60
2017,06,17,06,34,9.60
2017,06,17,06,35,9.60
2017,06,17,06,36,9.60
2017,06,17,06,37,9.60
2017,06,17,06,38,9.60
2017,06,17,06,39,9.70
2017,06,17,06,40,9.70
2017,06,17,06,41,9.70
2017,06,17,06,42,9.70
2017,06,17,06,43,9.70
2017,06,17,06,44,9.70
2017,06,17,06,45,9.70
2017,06,17,06,46,9.70
2017,06,17,06,47,9.80
2017,06,17,06,48,9.80
2017,06,17,06,49,9.80
2017,06,17,06,50,9.80
2017,06,17,06,51,9.90
2017,06,17,06,52,9.90
2017,06,17,06,53,9.90
2017,06,17,06,54,9.90
2017,06,17,06,55,10.00
2017,06,17,06,56,10.00
2017,06,17,06,57,10.10
2017,06,17,06,58,10.10
2017,06,17,06,59,10.10
2017,06,17,07,00,10.10
2017,06,17,07,01,10.20
2017,06,17,07,02,10.20
2017,06,17,07,03,10.20
2017,06,17,07,04,10.20
2017,06,17,07,05,10.30
2017,06,17,07,06,10.30
2017,06,17,07,07,10.30
2017,06,17,07,08,10.30
2017,06,17,07,09,10.30
2017,06,17,07,10,10.40
2017,06,17,07,11,10.40
2017,06,17,07,12,10.40
2017,06,17,07,13,10.40
2017,06,17,07,14,10.40
2017,06,17,07,15,10.40
2017,06,17,07,16,10.40
2017,06,17,07,17,10.40
2017,06,17,07,18,10.40
2017,06,17,07,19,10.40
2017,06,17,07,20,10.50
2017,06,17,07,21,10.50
2017,06,17,07,22,10.50
2017,06,17,07,23,10.60
2017,06,17,07,24,10.60
2017,06,17,07,25,10.60
2017,06,17,07,26,10.60
2017,06,17,07,27,10.60
2017,06,17,07,28,10.60
2017,06,17,07,29,10.70
2017,06,17,07,30,10.70
2017,06,17,07,31,10.70
2017,06,17,07,32,10.70
2017,06,17,07,33,10.70
2017,06,17,07,34,10.80
2017,06,17,07,35,10.80
2017,06,17,07,36,10.80
2017,06,17,07,37,10.80
2017,06,17,07,38,10.80
2017,06,17,07,39,10.90
2017,06,17,07,40,10.90
2017,06,17,07,41,10.90
2017,06,17,07,42,10.90
2017,06,17,07,43,10.90
2017,06,17,07,44,10.90
2017,06,17,07,45,10.90
2017,06,17,07,46,11.00
2017,06,17,07,47,11.00
2017,06,17,07,48,11.00
2017,06,17,07,49,11.00
2017,06,17,07,50,11.00
2017,06,17,07,51,11.10
2017,06,17,07,52,11.10
2017,06,17,07,53,11.10
2017,06,17,07,54,11.10
2017,06,17,07,55,11.10
2017,06,17,07,56,11.10
2017,06,17,07,57,11.10
2017,06,17,07,58,11.20
2017,06,17,07,59,11.20
2017,06,17,08,00,11.20
2017,06,17,08,01,11.20
2017,06,17,08,02,11.20
2017,06,17,08,03,11.20
2017,06,17,08,04,11.20
2017,06,17,08,05,11.20
2017,06,17,08,06,11.20
2017,06,17,08,07,11.20
2017,06,17,08,08,11.20
2017,06,17,08,09,11.20
2017,06,17,08,10,11.30
2017,06,17,08,11,11.30
2017,06,17,08,12,11.30
2017,06,17,08,13,11.30
2017,06,17,08,14,11.30
2017,06,17,08,15,11.30
2017,06,17,08,16,11.30
2017,06,17,08,17,11.30
2017,06,17,08,18,11.40
2017,06,17,08,19,11.40
2017,06,17,08,20,11.50
2017,06,17,08,21,11.50
2017,06,17,08,22,11.60
2017,06,17,08,23,11.60
2017,06,17,08,24,11.60
2017,06,17,08,25,11.60
2017,06,17,08,26,11.60
2017,06,17,08,27,11.70
2017,06,17,08,28,11.70
2017,06,17,08,29,11.80
2017,06,17,08,30,11.80
2017,06,17,08,31,11.80
2017,06,17,08,32,11.80
2017,06,17,08,33,11.90
2017,06,17,08,34,11.90
2017,06,17,08,35,11.90
2017,06,17,08,36,11.80
2017,06,17,08,37,11.80
2017,06,17,08,38,11.80
2017,06,17,08,39,11.90
2017,06,17,08,40,11.90
2017,06,17,08,41,11.90
2017,06,17,08,42,11.90
2017,06,17,08,43,11.80
2017,06,17,08,44,11.80
2017,06,17,08,45,11.80
2017,06,17,08,46,11.80
2017,06,17,08,47,11.90
2017,06,17,08,48,11.90
2017,06,17,08,49,11.90
2017,06,17,08,50,11.90
2017,06,17,08,51,12.00
2017,06,17,08,52,12.00
2017,06,17,08,53,12.00
2017,06,17,08,54,12.00
2017,06,17,08,55,12.00
2017,06,17,08,56,12.00
2017,06,17,08,57,12.10
2017,06,17,08,58,12.10
2017,06,17,08,59,12.10
2017,06,17,09,00,12.10
2017,06,17,09,01,12.10
2017,06,17,09,02,12.10
2017,06,17,09,03,12.10
2017,06,17,09,04,12.20
2017,06,17,09,05,12.20
2017,06,17,09,06,12.20
2017,06,17,09,07,12.30
2017,06,17,09,08,12.30
2017,06,17,09,09,12.40
2017,06,17,09,10,12.40
2017,06,17,09,11,12.40
2017,06,17,09,12,12.50
2017,06,17,09,13,12.50
2017,06,17,09,14,12.60
2017,06,17,09,15,12.60
2017,06,17,09,16,12.60
2017,06,17,09,17,12.60
2017,06,17,09,18,12.70
2017,06,17,09,19,12.70
2017,06,17,09,20,12.70
2017,06,17,09,21,12.80
2017,06,17,09,22,12.80
2017,06,17,09,23,12.70
2017,06,17,09,24,12.70
2017,06,17,09,25,12.70
2017,06,17,09,26,12.70
2017,06,17,09,27,12.70
2017,06,17,09,28,12.70
2017,06,17,09,29,12.70
2017,06,17,09,30,12.70
2017,06,17,09,31,12.70
2017,06,17,09,32,12.70
2017,06,17,09,33,12.80
2017,06,17,09,34,12.80
2017,06,17,09,35,12.80
2017,06,17,09,36,12.80
2017,06,17,09,37,12.80
2017,06,17,09,38,12.80
2017,06,17,09,39,12.80
2017,06,17,09,40,12.90
2017,06,17,09,41,12.90
2017,06,17,09,42,12.90
2017,06,17,09,43,12.90
2017,06,17,09,44,12.90
2017,06,17,09,45,12.90
2017,06,17,09,46,12.90
2017,06,17,09,47,13.00
2017,06,17,09,48,13.10
2017,06,17,09,49,13.10
2017,06,17,09,50,13.20
2017,06,17,09,51,13.30
2017,06,17,09,52,13.30
2017,06,17,09,53,13.40
2017,06,17,09,54,13.40
2017,06,17,09,55,13.50
2017,06,17,09,56,13.50
2017,06,17,09,57,13.60
2017,06,17,09,58,13.60
2017,06,17,09,59,13.60
2017,06,17,10,00,13.60
2017,06,17,10,01,13.70
2017,06,17,10,02,13.70
2017,06,17,10,03,13.70
2017,06,17,10,04,13.80
2017,06,17,10,05,13.80
2017,06,17,10,06,13.90
2017,06,17,10,07,14.00
2017,06,17,10,08,14.00
2017,06,17,10,09,14.00
2017,06,17,10,10,13.90
2017,06,17,10,11,13.90
2017,06,17,10,12,13.80
2017,06,17,10,13,13.80
2017,06,17,10,14,13.80
2017,06,17,10,15,13.80
2017,06,17,10,16,13.70
2017,06,17,10,17,13.70
2017,06,17,10,18,13.70
2017,06,17,10,19,13.70
2017,06,17,10,20,13.60
2017,06,17,10,21,13.60
2017,06,17,10,22,13.60
2017,06,17,10,23,13.50
2017,06,17,10,24,13.40
2017,06,17,10,25,13.40
2017,06,17,10,26,13.40
2017,06,17,10,27,13.40
2017,06,17,10,28,13.40
2017,06,17,10,29,13.40
2017,06,17,10,30,13.40
2017,06,17,10,31,13.30
2017,06,17,10,32,13.30
2017,06,17,10,33,13.30
2017,06,17,10,34,13.30
2017,06,17,10,35,13.20
2017,06,17,10,36,13.20
2017,06,17,10,37,13.20
2017,06,17,10,38,13.20
2017,06,17,10,39,13.10
2017,06,17,10,40,13.10
2017,06,17,10,41,13.10
2017,06,17,10,42,13.10
2017,06,17,10,43,13.10
2017,06,17,10,44,13.20
2017,06,17,10,45,13.30
2017,06,17,10,46,13.40
2017,06,17,10,47,13.40
2017,06,17,10,48,13.40
2017,06,17,10,49,13.40
2017,06,17,10,50,13.50
2017,06,17,10,51,13.50
2017,06,17,10,52,13.50
2017,06,17,10,53,13.50
2017,06,17,10,54,13.60
2017,06,17,10,55,13.60
2017,06,17,10,56,13.60
2017,06,17,10,57,13.60
2017,06,17,10,58,13.60
2017,06,17,10,59,13.60
2017,06,17,11,00,13.50
2017,06,17,11,01,13.50
2017,06,17,11,02,13.50
2017,06,17,11,03,13.50
2017,06,17,11,04,13.50
2017,06,17,11,05,13.50
2017,06,17,11,06,13.50
2017,06,17,11,07,13.50
2017,06,17,11,08,13.50
2017,06,17,11,09,13.60
2017,06,17,11,10,13.70
2017,06,17,11,11,13.70
2017,06,17,11,12,13.80
2017,06,17,11,13,13.80
2017,06,17,11,14,13.80
2017,06,17,11,15,13.80
2017,06,17,11,16,13.80
2017,06,17,11,17,13.80
2017,06,17,11,18,13.70
2017,06,17,11,19,13.70
2017,06,17,11,20,13.70
2017,06,17,11,21,13.70
2017,06,17,11,22,13.80
2017,06,17,11,23,13.80
2017,06,17,11,24,13.90
2017,06,17,11,25,13.90
2017,06,17,11,26,14.00
2017,06,17,11,27,14.00
2017,06,17,11,28,14.10
2017,06,17,11,29,14.10
2017,06,17,11,30,14.10
2017,06,17,11,31,14.10
2017,06,17,11,32,14.10
2017,06,17,11,33,14.10
2017,06,17,11,34,14.10
2017,06,17,11,35,14.10
2017,06,17,11,36,14.10
2017,06,17,11,37,14.10
2017,06,17,11,38,14.20
2017,06,17,11,39,14.20
2017,06,17,11,40,14.10
2017,06,17,11,41,14.10
2017,06,17,11,42,14.10
2017,06,17,11,43,14.10
2017,06,17,11,44,14.10
2017,06,17,11,45,14.00
2017,06,17,11,46,14.00
2017,06,17,11,47,14.00
2017,06,17,11,48,13.90
2017,06,17,11,49,13.90
2017,06,17,11,50,13.90
2017,06,17,11,51,13.90
2017,06,17,11,52,13.90
2017,06,17,11,53,13.90
2017,06,17,11,54,14.00
2017,06,17,11,55,14.00
2017,06,17,11,56,14.10
2017,06,17,11,57,14.20
2017,06,17,11,58,14.30
2017,06,17,11,59,14.30
2017,06,17,12,00,14.30
2017,06,17,12,01,14.30
2017,06,17,12,02,14.40
2017,06,17,12,03,14.40
2017,06,17,12,04,14.40
2017,06,17,12,05,14.40
2017,06,17,12,06,14.40
2017,06,17,12,07,14.40
2017,06,17,12,08,14.40
2017,06,17,12,09,14.40
2017,06,17,12,10,14.50
2017,06,17,12,11,14.50
2017,06,17,12,12,14.60
2017,06,17,12,13,14.70
2017,06,17,12,14,14.80
2017,06,17,12,15,14.80
2017,06,17,12,16,14.90
2017,06,17,12,17,14.90
2017,06,17,12,18,15.00
2017,06,17,12,19,15.00
2017,06,17,12,20,15.00
2017,06,17,12,21,14.90
2017,06,17,12,22,14.90
2017,06,17,12,23,14.90
2017,06,17,12,24,14.90
2017,06,17,12,25,14.90
2017,06,17,12,26,14.90
2017,06,17,12,27,14.90
2017,06,17,12,28,14.90
2017,06,17,12,29,14.90
2017,06,17,12,30,14.90
2017,06,17,12,31,14.90
2017,06,17,12,32,14.90
2017,06,17,12,33,15.00
2017,06,17,12,34,15.00
2017,06,17,12,35,15.00
2017,06,17,12,36,15.10
2017,06,17,12,37,15.10
2017,06,17,12,38,15.10
2017,06,17,12,39,15.10
2017,06,17,12,40,15.10
2017,06,17,12,41,15.00
2017,06,17,12,42,15.00
2017,06,17,12,43,15.00
2017,06,17,12,44,15.00
2017,06,17,12,45,14.90
2017,06,17,12,46,14.90
2017,06,17,12,47,14.80
2017,06,17,12,48,14.80
2017,06,17,12,49,14.80
2017,06,17,12,50,14.90
2017,06,17,12,51,14.90
2017,06,17,12,52,15.00
2017,06,17,12,53,15.00
2017,06,17,12,54,15.00
2017,06,17,12,55,15.00
2017,06,17,12,56,15.10
2017,06,17,12,57,15.10
2017,06,17,12,58,15.10
2017,06,17,12,59,15.10
2017,06,17,13,00,15.20
2017,06,17,13,01,15.20
2017,06,17,13,02,15.30
2017,06,17,13,03,15.30
2017,06,17,13,04,15.30
2017,06,17,13,05,15.40
2017,06,17,13,06,15.40
2017,06,17,13,07,15.40
2017,06,17,13,08,15.40
2017,06,17,13,09,15.50
2017,06,17,13,10,15.50
2017,06,17,13,11,15.50
2017,06,17,13,12,15.60
2017,06,17,13,13,15.60
2017,06,17,13,14,15.60
2017,06,17,13,15,15.60
2017,06,17,13,16,15.60
2017,06,17,13,17,15.50
2017,06,17,13,18,15.50
2017,06,17,13,19,15.50
2017,06,17,13,20,15.60
2017,06,17,13,21,15.60
2017,06,17,13,22,15.60
2017,06,17,13,23,15.70
2017,06,17,13,24,15.70
2017,06,17,13,25,15.70
2017,06,17,13,26,15.70
2017,06,17,13,27,15.70
2017,06,17,13,28,15.70
2017,06,17,13,29,15.70
2017,06,17,13,30,15.70
2017,06,17,13,31,15.70
2017,06,17,13,32,15.70
2017,06,17,13,33,15.60
2017,06,17,13,34,15.70
2017,06,17,13,35,15.70
2017,06,17,13,36,15.80
2017,06,17,13,37,15.80
2017,06,17,13,38,15.80
2017,06,17,13,39,15.80
2017,06,17,13,40,15.80
2017,06,17,13,41,15.80
2017,06,17,13,42,15.80
2017,06,17,13,43,15.70
2017,06,17,13,44,15.70
2017,06,17,13,45,15.60
2017,06,17,13,46,15.60
2017,06,17,13,47,15.60
2017,06,17,13,48,15.60
2017,06,17,13,49,15.60
2017,06,17,13,50,15.60
2017,06,17,13,51,15.60
2017,06,17,13,52,15.70
2017,06,17,13,53,15.70
2017,06,17,13,54,15.70
2017,06,17,13,55,15.80
2017,06,17,13,56,15.80
2017,06,17,13,57,15.80
2017,06,17,13,58,15.90
2017,06,17,13,59,15.90
2017,06,17,14,00,15.90
2017,06,17,14,01,15.90
2017,06,17,14,02,15.90
2017,06,17,14,03,16.00
2017,06,17,14,04,16.00
2017,06,17,14,05,16.10
2017,06,17,14,06,16.10
2017,06,17,14,07,16.20
2017,06,17,14,08,16.20
2017,06,17,14,09,16.20
2017,06,17,14,10,16.20
2017,06,17,14,11,16.20
2017,06,17,14,12,16.20
2017,06,17,14,13,16.20
2017,06,17,14,14,16.20
2017,06,17,14,15,16.20
2017,06,17,14,16,16.20
2017,06,17,14,17,16.20
2017,06,17,14,18,16.20
2017,06,17,14,19,16.20
2017,06,17,14,20,16.20
2017,06,17,14,21,16.30
2017,06,17,14,22,16.30
2017,06,17,14,23,16.30
2017,06,17,14,24,16.30
2017,06,17,14,25,16.30
2017,06,17,14,26,16.30
2017,06,17,14,27,16.30
2017,06,17,14,28,16.30
2017,06,17,14,29,16.30
2017,06,17,14,30,16.30
2017,06,17,14,31,16.30
2017,06,17,14,32,16.30
2017,06,17,14,33,16.20
2017,06,17,14,34,16.20
2017,06,17,14,35,16.20
2017,06,17,14,36,16.20
2017,06,17,14,37,16.20
2017,06,17,14,38,16.20
2017,06,17,14,39,16.20
2017,06,17,14,40,16.30
2017,06,17,14,41,16.30
2017,06,17,14,42,16.30
2017,06,17,14,43,16.30
2017,06,17,14,44,16.30
2017,06,17,14,45,16.40
2017,06,17,14,46,16.40
2017,06,17,14,47,16.40
2017,06,17,14,48,16.50
2017,06,17,14,49,16.50
2017,06,17,14,50,16.60
2017,06,17,14,51,16.70
2017,06,17,14,52,16.80
2017,06,17,14,53,16.90
2017,06,17,14,54,16.90
2017,06,17,14,55,17.00
2017,06,17,14,56,17.00
2017,06,17,14,57,17.10
2017,06,17,14,58,17.10
2017,06,17,14,59,17.10
2017,06,17,15,00,17.00
2017,06,17,15,01,17.00
2017,06,17,15,02,17.00
2017,06,17,15,03,17.00
2017,06,17,15,04,16.90
2017,06,17,15,05,16.90
2017,06,17,15,06,16.90
2017,06,17,15,07,16.90
2017,06,17,15,08,16.90
2017,06,17,15,09,16.80
2017,06,17,15,10,16.80
2017,06,17,15,11,16.70
2017,06,17,15,12,16.70
2017,06,17,15,13,16.60
2017,06,17,15,14,16.60
2017,06,17,15,15,16.60
2017,06,17,15,16,16.60
2017,06,17,15,17,16.60
2017,06,17,15,18,16.70
2017,06,17,15,19,16.70
2017,06,17,15,20,16.70
2017,06,17,15,21,16.70
2017,06,17,15,22,16.70
2017,06,17,15,23,16.60
2017,06,17,15,24,16.50
2017,06,17,15,25,16.50
2017,06,17,15,26,16.40
2017,06,17,15,27,16.30
2017,06,17,15,28,16.30
2017,06,17,15,29,16.20
2017,06,17,15,30,16.20
2017,06,17,15,31,16.20
2017,06,17,15,32,16.20
2017,06,17,15,33,16.20
2017,06,17,15,34,16.20
2017,06,17,15,35,16.10
2017,06,17,15,36,16.00
2017,06,17,15,37,16.00
2017,06,17,15,38,15.90
2017,06,17,15,39,15.90
2017,06,17,15,40,15.80
2017,06,17,15,41,15.80
2017,06,17,15,42,15.70
2017,06,17,15,43,15.70
2017,06,17,15,44,15.70
2017,06,17,15,45,15.60
2017,06,17,15,46,15.60
2017,06,17,15,47,15.60
2017,06,17,15,48,15.50
2017,06,17,15,49,15.40
2017,06,17,15,50,15.40
2017,06,17,15,51,15.40
2017,06,17,15,52,15.30
2017,06,17,15,53,15.30
2017,06,17,15,54,15.20
2017,06,17,15,55,15.10
2017,06,17,15,56,15.10
2017,06,17,15,57,15.00
2017,06,17,15,58,15.00
2017,06,17,15,59,14.90
2017,06,17,16,00,14.90
2017,06,17,16,01,14.90
2017,06,17,16,02,15.00
2017,06,17,16,03,15.00
2017,06,17,16,04,15.00
2017,06,17,16,05,14.90
2017,06,17,16,06,15.00
2017,06,17,16,07,15.00
2017,06,17,16,08,15.10
2017,06,17,16,09,15.10
2017,06,17,16,10,15.20
2017,06,17,16,11,15.20
2017,06,17,16,12,15.20
2017,06,17,16,13,15.30
2017,06,17,16,14,15.40
2017,06,17,16,15,15.40
2017,06,17,16,16,15.50
2017,06,17,16,17,15.50
2017,06,17,16,18,15.60
2017,06,17,16,19,15.60
2017,06,17,16,20,15.70
2017,06,17,16,21,15.70
2017,06,17,16,22,15.70
2017,06,17,16,23,15.70
2017,06,17,16,24,15.70
2017,06,17,16,25,15.70
2017,06,17,16,26,15.70
2017,06,17,16,27,15.70
2017,06,17,16,28,15.70
2017,06,17,16,29,15.70
2017,06,17,16,30,15.70
2017,06,17,16,31,15.70
2017,06,17,16,32,15.60
2017,06,17,16,33,15.60
2017,06,17,16,34,15.60
2017,06,17,16,35,15.60
2017,06,17,16,36,15.70
2017,06,17,16,37,15.70
2017,06,17,16,38,15.70
2017,06,17,16,39,15.70
2017,06,17,16,40,15.70
2017,06,17,16,41,15.70
2017,06,17,16,42,15.70
2017,06,17,16,43,15.60
2017,06,17,16,44,15.60
2017,06,17,16,45,15.60
2017,06,17,16,46,15.60
2017,06,17,16,47,15.50
2017,06,17,16,48,15.50
2017,06,17,16,49,15.50
2017,06,17,16,50,15.50
2017,06,17,16,51,15.40
2017,06,17,16,52,15.40
2017,06,17,16,53,15.40
2017,06,17,16,54,15.40
2017,06,17,16,55,15.40
2017,06,17,16,56,15.40
2017,06,17,16,57,15.30
2017,06,17,16,58,15.30
2017,06,17,16,59,15.30
2017,06,17,17,00,15.30
2017,06,17,17,01,15.30
2017,06,17,17,02,15.30
2017,06,17,17,03,15.30
2017,06,17,17,04,15.30
2017,06,17,17,05,15.30
2017,06,17,17,06,15.20
2017,06,17,17,07,15.20
2017,06,17,17,08,15.30
2017,06,17,17,09,15.30
2017,06,17,17,10,15.30
2017,06,17,17,11,15.30
2017,06,17,17,12,15.30
2017,06,17,17,13,15.40
2017,06,17,17,14,15.40
2017,06,17,17,15,15.50
2017,06,17,17,16,15.50
2017,06,17,17,17,15.50
2017,06,17,17,18,15.60
2017,06,17,17,19,15.60
2017,06,17,17,20,15.60
2017,06,17,17,21,15.60
2017,06,17,17,22,15.70
2017,06,17,17,23,15.70
2017,06,17,17,24,15.70
2017,06,17,17,25,15.70
2017,06,17,17,26,15.70
2017,06,17,17,27,15.60
2017,06,17,17,28,15.60